Location: Seattle
(47.6064°N, 122.3308°W)
Time: 01:49:30
(UTC-08:00)

A-11 Canister half - Pass Details

Date: 05 December 2020
Orbit: 1524 x 1684 km, 47.3° (Epoch: 21 January)

Event Time Altitude Azimuth Distance (km) Brightness Sun altitude
Rises 04:30:56 0° 231° (SW) 4,922 - -31.2°
Reaches altitude 10° 04:34:08 10° 228° (SW) 3,941 - -30.7°
Exits shadow 04:39:12 34° 217° (SW) 2,530 9.8 -29.9°
Maximum altitude 04:44:03 62° 152° (SSE) 1,855 9.4 -29.0°
Drops below altitude 10° 04:53:54 10° 75° (ENE) 3,909 12.0 -27.4°
Sets 04:57:03 0° 72° (ENE) 4,881 12.7 -26.8°
